Location: Newark
(40.3500°N, 15.2333°E)
Time: 02:17:00
(UTC+00:00)

NOAA 15 - Pass Details

Date: 25 February 2020
Orbit: 797 x 813 km, 98.7° (Epoch: 06 April)

Event Time Altitude Azimuth Distance (km) Brightness Sun altitude
Rises 04:57:27 0° 37° (NE) 3,333 8.3 -8.8°
Reaches altitude 10° 05:01:35 10° 68° (ENE) 2,390 8.2 -8.0°
Maximum altitude 05:03:26 12° 89° (E) 2,262 8.6 -7.7°
Drops below altitude 10° 05:05:16 10° 110° (ESE) 2,381 8.6 -7.3°
Sets 05:09:21 0° 142° (SE) 3,300 8.5 -6.5°
